Flag for Japan Weather past 2 weeks in Shizuoka, Japan

Now
75 °F

Mild.


Feels Like: 73 °F
Forecast: 67 / 86 °F
Wind: 5 mph from Northeast

Location: Omaezaki

Current Time: Jul 29, 2014 at 4:21:31 AM

Latest Report: Jul 29, 2014 at 3:00 AM


Visibility: 10 mi

Pressure: 29.87 "Hg

Humidity: 91%

Dew point: 72 °F

Location of ShizuokaLocation

Historic Weather in Shizuoka — Graph

°F

Shizuoka temperature yesterday

Maximum temperature yesterday: 83 °F (at 2:00 PM)
Minimum temperature yesterday: 72 °F (at 5:00 AM)
Average temperature yesterday: 78 °F

Past Weeks' High & Low Weather Summary

 TemperatureHumidityPressure
High85 °F (Jul 24, 7:00 PM)100% (Jul 14, 3:00 AM)29.96 "Hg (Jul 14, 3:00 AM)
Low69 °F (Jul 19, 3:00 PM)62% (Jul 28, 12:00 AM)29.63 "Hg (Jul 24, 3:00 PM)
Average78 °F90%29.83 "Hg
* Reported Jul 14 3:00 AM — Jul 29 3:00 AM, Shizuoka, Weather by CustomWeather, © 2014

Note: Actual official high and low records may vary slightly from our data, if they occured in-between our weather recording intervals... More about our weather records

Advertising

Shizuoka weather history for previous 24 hours

 ConditionsComfort  
Time TempWeatherWind HumidityBarometerVisibility
3:00 AM
Jul 29
75 °FMild.5 mph91%29.87 "Hg10 mi
2:00 AM74 °FMild.6 mph91%29.86 "Hg11 mi
1:00 AM76 °FMild.6 mph90%29.86 "Hg9 mi
12:00 AM74 °FFog.3 mph98%29.86 "Hg6 mi
11:00 PM
Jul 28
75 °FMild.5 mph96%29.86 "Hg7 mi
10:00 PM76 °FMild.8 mph94%29.86 "Hg7 mi
9:00 PM76 °FMild.8 mph91%29.85 "Hg8 mi
8:00 PM77 °FWarm.10 mph86%29.83 "Hg9 mi
7:00 PM77 °FWarm.9 mph86%29.81 "Hg9 mi
6:00 PM79 °FWarm.10 mph79%29.79 "Hg11 mi
5:00 PM81 °FWarm.10 mph75%29.78 "Hg12 mi
4:00 PM82 °FWarm.15 mph70%29.78 "Hg12 mi
3:00 PM82 °FWarm.12 mph65%29.78 "Hg12 mi
2:00 PM83 °FWarm.10 mph62%29.78 "Hg12 mi
1:00 PM83 °FWarm.10 mph63%29.78 "Hg12 mi
12:00 PM82 °FWarm.9 mph68%29.78 "Hg12 mi
11:00 AM81 °FWarm.6 mph68%29.79 "Hg12 mi
10:00 AM79 °FWarm.7 mph71%29.79 "Hg12 mi
9:00 AM78 °FWarm.8 mph69%29.79 "Hg12 mi
8:00 AM77 °FWarm.3 mph75%29.78 "Hg11 mi
7:00 AM77 °FWarm.7 mph70%29.75 "Hg12 mi
6:00 AM73 °FMild.7 mph73%29.74 "Hg12 mi
5:00 AM72 °FMild.8 mph75%29.72 "Hg12 mi
4:00 AM72 °FMild.9 mph73%29.70 "Hg12 mi
Weather by CustomWeather, © 2014

See weather overviewHow to use our weather pages